📊 Raw Sensor Data
Showing records 40901 to 40925 of 84,973 total
| ID | Distance (ft) | Battery V | Battery A | Int Temp (°F) | Int Humid (%) | Ext Temp (°F) | Solar V | RSSI | SNR | Time Stamp |
|---|---|---|---|---|---|---|---|---|---|---|
| 44085 | 14.8 | 3.85 | -5 | 52 | 43 | 54 | 0.00 | -70 | 8 | 06/21/2025 02:15 AM |
| 44084 | 14.8 | 3.94 | -5 | 53 | 43 | 54 | 0.00 | -70 | 8 | 06/21/2025 02:00 AM |
| 44083 | 14.8 | 3.85 | -5 | 53 | 43 | 55 | 0.00 | -70 | 8 | 06/21/2025 01:45 AM |
| 44082 | 14.7 | 3.94 | -5 | 53 | 44 | 55 | 0.00 | -70 | 8 | 06/21/2025 01:30 AM |
| 44081 | 14.8 | 3.85 | -5 | 54 | 44 | 55 | 0.00 | -70 | 8 | 06/21/2025 01:15 AM |
| 44080 | 14.7 | 3.85 | -5 | 54 | 44 | 56 | 0.00 | -70 | 8 | 06/21/2025 01:00 AM |
| 44079 | 14.8 | 3.94 | -5 | 54 | 44 | 56 | 0.00 | -71 | 7 | 06/21/2025 12:45 AM |
| 44078 | 14.7 | 3.85 | -5 | 54 | 44 | 56 | 0.00 | -69 | 8 | 06/21/2025 12:30 AM |
| 44077 | 14.7 | 3.85 | -5 | 55 | 44 | 56 | 0.00 | -69 | 8 | 06/21/2025 12:15 AM |
| 44076 | 14.7 | 3.94 | -5 | 56 | 44 | 57 | 0.00 | -72 | 8 | 06/21/2025 12:00 AM |
| 44075 | 14.7 | 3.94 | -5 | 56 | 45 | 57 | 0.00 | -71 | 8 | 06/20/2025 11:45 PM |
| 44074 | 14.7 | 3.85 | -5 | 56 | 45 | 58 | 0.00 | -70 | 7 | 06/20/2025 11:30 PM |
| 44073 | 14.7 | 3.85 | -5 | 57 | 45 | 58 | 0.10 | -71 | 7 | 06/20/2025 11:15 PM |
| 44072 | 14.7 | 3.95 | -5 | 57 | 45 | 59 | 0.00 | -70 | 8 | 06/20/2025 11:00 PM |
| 44071 | 14.7 | 3.95 | -5 | 57 | 45 | 59 | 0.00 | -69 | 8 | 06/20/2025 10:45 PM |
| 44070 | 14.7 | 3.86 | -5 | 58 | 46 | 59 | 0.00 | -72 | 7 | 06/20/2025 10:30 PM |
| 44069 | 14.7 | 3.86 | -5 | 58 | 46 | 59 | 0.00 | -70 | 8 | 06/20/2025 10:15 PM |
| 44068 | 14.7 | 3.86 | -5 | 59 | 47 | 60 | 0.00 | -71 | 8 | 06/20/2025 10:00 PM |
| 44067 | 14.7 | 3.95 | -5 | 59 | 48 | 60 | 0.00 | -72 | 7 | 06/20/2025 09:45 PM |
| 44066 | 14.7 | 3.95 | -5 | 60 | 48 | 61 | 0.00 | -71 | 8 | 06/20/2025 09:30 PM |
| 44065 | 15.1 | 3.95 | -5 | 61 | 49 | 61 | 0.00 | -69 | 8 | 06/20/2025 09:15 PM |
| 44064 | 15.1 | 3.86 | -5 | 62 | 51 | 62 | 0.00 | -69 | 8 | 06/20/2025 09:00 PM |
| 44063 | 15.1 | 3.86 | -5 | 64 | 52 | 63 | 1.10 | -70 | 8 | 06/20/2025 08:45 PM |
| 44062 | 15.1 | 3.84 | -10 | 67 | 52 | 64 | 4.20 | -70 | 7 | 06/20/2025 08:30 PM |
| 44061 | 15.1 | 3.96 | 0 | 70 | 52 | 67 | 4.50 | -73 | 8 | 06/20/2025 08:15 PM |